Flag for Brazil Weather past 2 weeks in Uruguaiana, Rio Grande do Sul, Brazil

Now
61 °F

Clear.


Feels Like: 61 °F
Forecast: 61 / 69 °F
Wind: 6 mph from Northeast

Location: Pelotas Airport

Current Time: Jul 30, 2014 at 12:35:19 AM

Latest Report: Jul 30, 2014 at 12:00 AM


Visibility: 10 mi

Pressure: 30.18 "Hg

Humidity: 94%

Dew point: 59 °F

Location of UruguaianaLocation

Historic Weather in Uruguaiana — Graph

°F

Uruguaiana temperature yesterday

Maximum temperature yesterday: 70 °F (at 3:00 PM)
Minimum temperature yesterday: 48 °F (at 12:00 AM)
Average temperature yesterday: 60 °F

Past Weeks' High & Low Weather Summary

 TemperatureHumidityPressure
High73 °F (Jul 15, 1:00 PM)100% (Jul 14, 11:00 PM)30.48 "Hg (Jul 14, 11:00 PM)
Low36 °F (Jul 28, 7:00 AM)41% (Jul 25, 2:00 PM)29.65 "Hg (Jul 23, 4:00 PM)
Average57 °F86%30.10 "Hg
* Reported Jul 14 11:00 PM — Jul 29 11:00 PM, Uruguaiana, Weather by CustomWeather, © 2014

Note: Actual official high and low records may vary slightly from our data, if they occured in-between our weather recording intervals... More about our weather records

Advertising

Uruguaiana weather history for previous 24 hours

 ConditionsComfort  
Time TempWeatherWind HumidityBarometerVisibility
11:00 PM
Jul 29
61 °FLight rain. Clear.3 mph94%30.21 "HgN/A
10:00 PM61 °FClear.8 mph94%30.21 "Hg10 mi
9:00 PM61 °FClear.7 mph94%30.21 "Hg10 mi
8:00 PM63 °FClear.8 mph88%30.21 "Hg10 mi
7:00 PM63 °FClear.8 mph88%30.21 "Hg10 mi
6:00 PM63 °FClear.10 mph88%30.21 "Hg10 mi
5:00 PM63 °FClear.13 mph88%30.21 "Hg10 mi
3:00 PM70 °FSunny.13 mph73%30.21 "Hg10 mi
2:00 PM68 °FSunny.12 mph78%30.24 "Hg10 mi
1:00 PM68 °FSunny.12 mph69%30.24 "Hg10 mi
12:00 PM66 °FScattered clouds.16 mph73%30.30 "HgN/A
11:00 AM64 °FScattered clouds.13 mph78%30.30 "HgN/A
10:00 AM61 °FScattered clouds.17 mph88%30.33 "HgN/A
9:00 AM57 °FBroken clouds.12 mph94%30.33 "HgN/A
8:00 AM55 °FBroken clouds.6 mph100%30.33 "HgN/A
7:00 AM55 °FOvercast.7 mph100%30.33 "Hg6 mi
6:00 AM55 °FOvercast.6 mph100%30.33 "HgN/A
5:00 AM55 °FOvercast.5 mph94%30.30 "HgN/A
4:00 AM55 °FOvercast.14 mph94%30.30 "HgN/A
3:00 AM55 °FPassing clouds.8 mph94%30.33 "HgN/A
2:00 AM54 °FPassing clouds.8 mph88%30.33 "HgN/A
1:00 AM52 °FPassing clouds.9 mph94%30.36 "HgN/A
12:00 AM48 °FClear.No wind94%30.39 "Hg10 mi
Weather by CustomWeather, © 2014

See weather overviewHow to use our weather pages